Location: Hopkins Observatory
(42.6965°N, 73.1843°W)
Time: 19:43:53
(UTC-04:00)

UOSAT-12 - Visible Passes

Search period start: 31 October 2014 00:00
Search period end: 09 November 2014 23:00
Orbit: 594 x 664 km, 64.6° (Epoch: 31 October)

Date Brightness Start Highest point End Pass type
(mag) Time Alt. Az. Time Alt. Az. Time Alt. Az.
31 Oct 9.6 19:48:20 10° N 19:48:51 11° NNE 19:48:51 11° NNE visible
01 Nov 9.5 20:07:50 10° N 20:08:50 14° N 20:08:50 14° N visible
02 Nov 9.5 19:27:49 10° NNW 19:28:51 16° NNW 19:28:51 16° NNW visible
03 Nov 9.1 18:09:15 10° N 18:11:36 14° NNE 18:11:36 14° NNE visible
03 Nov 9.7 19:48:05 10° NNW 19:48:57 15° NNW 19:48:57 15° NNW visible
04 Nov 8.7 18:28:55 10° NNW 18:31:46 22° NNE 18:31:46 22° NNE visible
04 Nov 10.1 20:08:37 10° NW 20:09:07 13° NW 20:09:07 13° NW visible
05 Nov 9.3 17:11:55 10° NNE 17:12:07 10° NNE 17:12:19 10° NNE visible
05 Nov 8.2 18:48:59 10° NNW 18:52:01 33° N 18:52:01 33° N visible
06 Nov 8.9 17:30:13 10° N 17:33:12 16° NE 17:35:02 14° ENE visible
06 Nov 8.2 19:09:18 10° NW 19:12:24 41° NNW 19:12:24 41° NNW visible
07 Nov 8.2 17:50:01 10° NNW 17:54:05 28° NE 17:55:34 23° ENE visible
07 Nov 8.8 19:29:56 10° NW 19:32:56 33° WNW 19:32:56 33° WNW visible
08 Nov 7.3 18:10:09 10° NNW 18:14:46 52° NE 18:16:19 36° ESE visible
08 Nov 9.6 19:51:09 10° WNW 19:53:42 19° W 19:53:42 19° W visible
09 Nov 7.2 18:30:32 10° NW 18:35:15 76° WSW 18:37:22 32° SSE visible
